Dubuque, IA

11:15 PM CST on November 21, 2019 (GMT -0600)
Dubuque Regional

Weather History for KDBQ - October, 2019

Change the Weather History Date:

Tuesday, October 22, 2019

  Actual Average Record
Temperature  
Mean Temperature 43 °F 48 °F  
Max Temperature 55 °F 58 °F 83 °F (1947)
Min Temperature 37 °F 38 °F 19 °F (1976)
Degree Days  
Heating Degree Days 22 17  
Month to date heating degree days 307 300  
Since 1 July heating degree days 369 478  
Cooling Degree Days 0 0  
Month to date cooling degree days 9 4  
Year to date cooling degree days 679 641  
Moisture  
Dew Point 38 °F    
Average Humidity 80    
Maximum Humidity 96    
Minimum Humidity 53    
Precipitation  
Precipitation 0.03 in 0.08 in 2.38 in (2001)
Month to date precipitation 6.01 1.88  
Year to date precipitation 50.45 31.32  
Snow  
Snow 0.00 in 0.00 in - ()
Month to date snowfall 0.0 0.0  
Since 1 July snowfall 0.0 0.0  
Since 1 September snowfall 0.0 0.0  
Snow Depth 0.00 in    
Sea Level Pressure  
Sea Level Pressure 29.56 in    
Wind  
Wind Speed 21 mph ()    
Max Wind Speed 33 mph    
Max Gust Speed 47 mph    
Visibility 9.5 miles    
Events Rain    
T = Trace of Precipitation, MM = Missing Value Source: Averaged Metar Reports

Daily Weather History Graph

Daily Weather History Graph

Search for Another Location

Airport or City:

Astronomy

Oct. 22, 2019 Rise Set
Actual Time 7:23 AM CDT 6:10 PM CDT
Civil Twilight 6:55 AM CDT 6:38 PM CDT
Nautical Twilight 6:22 AM CDT 7:11 PM CDT
Astronomical Twilight 5:49 AM CDT 7:44 PM CDT
Moon 12:23 AM CDT 3:29 PM CDT
Length of Visible Light 11h 43m
Length of Day
10h 46m
Last Quarter, 37% of the Moon is Illuminated
Oct 22
Last Quarter
Oct 27
New
Nov 4
First Quarter
Nov 12
Full
Nov 19
Last Quarter

Hourly Weather History & Observations

Time (CDT) Temp. Windchill Dew Point Humidity Pressure Visibility Wind Dir Wind Speed Gust Speed Precip Events Conditions
12:53 AM 45.0 °F 36.6 °F 41.0 °F 86% 29.35 in 10.0 mi SW 21.9 mph 33.4 mph 0.00 in Rain Light Rain
1:11 AM 45.0 °F 36.6 °F 41.0 °F 86% 29.34 in 10.0 mi SSW 21.9 mph 33.4 mph 0.00 in Rain Light Rain
1:53 AM 45.0 °F 35.2 °F 42.1 °F 90% 29.33 in 10.0 mi SW 29.9 mph 47.2 mph 0.00 in Rain Light Rain
2:53 AM 45.0 °F 34.7 °F 41.0 °F 86% 29.34 in 10.0 mi SW 33.4 mph 41.4 mph 0.00 in Rain Light Rain
3:22 AM 44.1 °F 34.4 °F 42.1 °F 93% 29.34 in 8.0 mi WSW 27.6 mph 38.0 mph 0.00 in Rain Light Rain
3:40 AM 44.1 °F 35.0 °F 42.1 °F 93% 29.34 in 10.0 mi WSW 24.2 mph 36.8 mph 0.00 in Rain Light Rain
3:53 AM 44.1 °F 34.8 °F 41.0 °F 89% 29.36 in 10.0 mi WSW 25.3 mph 35.7 mph 0.00 in Rain Light Rain
4:00 AM 44.1 °F 34.6 °F 42.1 °F 93% 29.36 in 10.0 mi WSW 26.5 mph 38.0 mph 0.00 in Rain Light Rain
4:53 AM 44.1 °F 34.8 °F - N/A% 29.39 in 7.0 mi WSW 25.3 mph 38.0 mph 0.01 in Rain Light Rain
5:53 AM 43.0 °F 33.8 °F 41.0 °F 93% 29.43 in 5.0 mi WSW 23.0 mph 35.7 mph 0.01 in Rain Light Rain
6:53 AM 43.0 °F 33.8 °F 41.0 °F 93% 29.47 in 10.0 mi West 23.0 mph 33.4 mph 0.01 in Rain Light Rain
7:01 AM 43.0 °F 32.9 °F 41.0 °F 93% 29.46 in 10.0 mi West 27.6 mph 40.3 mph 0.00 in Rain Light Rain
7:53 AM 43.0 °F 33.8 °F 41.0 °F 93% 29.50 in 7.0 mi West 23.0 mph 35.7 mph 0.00 in Rain Light Rain
8:53 AM 43.0 °F 34.8 °F 41.0 °F 93% 29.54 in 9.0 mi West 18.4 mph 32.2 mph 0.00 in Rain Light Rain
9:53 AM 43.0 °F 34.2 °F 39.0 °F 86% 29.56 in 10.0 mi West 20.7 mph 33.4 mph 0.00 in Rain Light Rain
10:53 AM 43.0 °F 34.2 °F 39.0 °F 86% 29.59 in 9.0 mi West 20.7 mph 32.2 mph 0.00 in Rain Light Rain
11:53 AM 42.1 °F 32.6 °F 39.0 °F 89% 29.62 in 10.0 mi West 23.0 mph 35.7 mph 0.00 in Rain Light Rain
12:53 PM 43.0 °F 33.8 °F 39.0 °F 86% 29.62 in 10.0 mi WSW 23.0 mph 38.0 mph 0.00 in Rain Light Rain
1:53 PM 44.1 °F 34.8 °F 39.0 °F 82% 29.65 in 10.0 mi West 25.3 mph 38.0 mph 0.00 in   Overcast
2:53 PM 44.1 °F 34.8 °F 37.0 °F 76% 29.67 in 10.0 mi West 25.3 mph 35.7 mph N/A   Overcast
3:53 PM 48.0 °F - 36.0 °F 63% 29.69 in 10.0 mi West 24.2 mph 38.0 mph N/A   Overcast
4:53 PM 48.0 °F - 35.1 °F 61% 29.70 in 10.0 mi West 20.7 mph 38.0 mph N/A   Mostly Cloudy
5:53 PM 48.0 °F - 32.0 °F 54% 29.73 in 10.0 mi West 19.6 mph 31.1 mph N/A   Scattered Clouds
6:53 PM 46.0 °F 38.8 °F 30.9 °F 56% 29.75 in 10.0 mi WSW 18.4 mph - N/A   Partly Cloudy
7:53 PM 44.1 °F 36.8 °F 30.0 °F 58% 29.78 in 10.0 mi WSW 16.1 mph - N/A   Clear
8:53 PM 42.1 °F 34.9 °F 30.9 °F 65% 29.79 in 10.0 mi WSW 13.8 mph - N/A   Clear
9:53 PM 41.0 °F 33.9 °F 30.9 °F 67% 29.81 in 10.0 mi WSW 12.7 mph - N/A   Clear
10:53 PM 39.9 °F 32.9 °F 30.0 °F 68% 29.82 in 10.0 mi WSW 11.5 mph - N/A   Clear
11:53 PM 39.0 °F 31.4 °F 30.0 °F 70% 29.82 in 10.0 mi WSW 12.7 mph - N/A   Clear